Location: Stilling
(56.0622°N, 9.9882°E)
Time: 23:52:59
(UTC+00:00)

Cosmos 1782 - Pass Details

Date: 13 July 2020
Orbit: 537 x 552 km, 82.5° (Epoch: 14 August)

Event Time Altitude Azimuth Distance (km) Brightness Sun altitude
Rises 23:02:10 0° 341° (NNW) 2,707 8.1 -12.1°
Reaches altitude 10° 23:04:29 10° 332° (NNW) 1,810 6.6 -12.2°
Maximum altitude 23:08:01 32° 269° (W) 952 4.0 -12.2°
Enters shadow 23:10:52 14° 211° (SSW) 1,560 4.6 -12.2°
